BLOCK DM-SL R/B, 26452

Orbit data source: Space-Track

BLOCK DM-SL R/B, 26452 is space debris in HEO originally from a launch on Fri, 28 Jul 2000 UTC launched from the Sea Launch (SEAL). Debris objects in space refer to the collection of defunct objects orbiting the Earth. Examples of debris include non-operational satellites, rocket bodies, and fragments generated from explosions, collisions, or faulty payload assembly.

Loading next visibility...
Identifier
26452, 2000-043B
Orbit
HEO
Country
Flag of UnknownUnknown / SEAL
Related business
Manufacturer
RKKE
Mission
Spacecraft
Bus & Motor
BLOK DM2, Unknown motor
Mass
~3,210 kg wet, ~3,210 kg dry
Launch date (UTC)
2000-07-28 (25 years ago)
Launch vehicle
Unknown
Launch site
Sea Launch (SEAL)
Object type
Payload
Rocket body
Debris
Shape & HBR
Cyl, 3.1 m
Radar Cross Section
23.684 m², Large (>1 m²)

Expand to show TLE details & history
Last TLE update: 5 hours ago

TLE from 5 hours ago
0 BLOCK DM-SL R/B
1 26452U 00043B   25352.93500659 -.00000152  00000-0  00000-0 0  9999
2 26452   1.1128 113.8113 6720954 180.8682 324.4440  2.16748767200683
Epoch: 2025-12-18T22:26Z
TLE epoch observation values (Epoch: 2025-12-18T22:26:24.569Z)
Latitude
0.9762°
Longitude
112.82485°
Altitude
13,612.506 km
Speed
4.906 km/s
True Right ascension
11h 48m 50s
True Declination
0° 58' 27"
Sunlit
Object was in daylight at epoch
Visualization orbit readout
Latitude
Unknown
Longitude
Unknown
Altitude
Unknown
Speed
Unknown
Apparent Right ascension
Unknown
Apparent Declination
Unknown
Sunlit
N/A
Visualization observer readout
Local Sidereal Time
02:09:50
Azimuth
Unknown
Elevation
Unknown
Doppler factor
Unknown
Orbital elements
Apogee altitude
35,801.169 km
Perigee altitude
1,893.394 km
Semi-major axis
25,225.418 km
Eccentricity
0.6721
Inclination
1.1128°
RAAN
113.8113°
Arg. of periapsis
180.8682°
True anomaly
242.51455°
Mean anomaly
324.444°
Eccentric anomaly
287.7738°
Mean motion
0.54173 °/min
Orbital period
664.53 mins
BSTAR
0
Loading maneuver chart data...
Computing Atmospheric mass density...
Loading historical data...
Loading historical data...
Loading historical data...
Loading historical data...
Loading historical data...
Loading historical data...
Loading historical data...
Other satellites on launch #43 in the year 2000 (2000-07-28 UTC)

Documentation

Showing up to 5 results
|